Regional Weather Roundup
Issued by NWS Upton, NY

Current Version | Previous Version | Text Only | Print | Product List | Glossary On
Versions: 1 2 3 4 5 6 7 8 9 10 11 12 13 14 15 16 17 18 19 20 21 22 23 24 25 26 27 28 29 30 31 32 33 34 35 36 37 38 39 40 41 42 43 44 45 46 47 48 49 50
000 ASUS41 KOKX 280305 RWROKX REGIONAL WEATHER ROUNDUP NATIONAL WEATHER SERVICE NEW YORK NY 1000 PM EST THU NOV 27 2014 NOTE: "FAIR" INDICATES FEW OR NO CLOUDS BELOW 12,000 FEET WITH NO SIGNIFICANT WEATHER AND/OR OBSTRUCTIONS TO VISIBILITY. NYZ071-072-176-178-NJZ106-104-280400- NEW YORK CITY METRO AREA CITY SKY/WX TMP DP RH WIND PRES REMARKS CENTRAL PARK CLOUDY 36 24 62 NW7G16 30.07S WCI 30 LAGUARDIA APRT CLOUDY 36 26 67 NW16 30.05S WCI 26 KENNEDY INTL CLOUDY 37 25 61 NW16 30.06R WCI 28 NEWARK/LIBERTY MOCLDY 35 25 66 NW10G18 30.07R WCI 27 BRNX BOT. GARD N/A N/A N/A N/A NW2 30.06R TETERBORO CLOUDY 35 25 66 NW9 30.05S WCI 28 $$ NYZ177-179-078>081-280400- LONG ISLAND NEW YORK CITY SKY/WX TMP DP RH WIND PRES REMARKS FARMINGDALE CLOUDY 37 30 75 N9 30.04S WCI 30 ISLIP CLOUDY 35 31 85 N8 30.01S WCI 29 SHIRLEY CLOUDY 36 29 75 NW10 30.03S WCI 28 WESTHAMPTON CLOUDY 36 28 73 NW13 30.02S WCI 27 MONTAUK POINT N/A 37 32 82 NW13 30.00S WCI 29 $$ NYZ052-065-067-280400- HUDSON VALLEY CITY SKY/WX TMP DP RH WIND PRES REMARKS WHITE PLAINS CLOUDY 33 28 81 NW10 30.02S WCI 25 NEWBURGH CLOUDY 28 28 100 CALM 30.05S FOG MONTGOMERY CLOUDY 31 28 89 CALM 30.04S POUGHKEEPSIE CLOUDY 31 27 85 NW3 30.06R ALBANY LGT SNOW 29 26 89 N3 30.06R FOG $$ NJZ001-105-106-008-010-013-015-019>022-104-280400- NEW JERSEY CITY SKY/WX TMP DP RH WIND PRES REMARKS NEWARK/LIBERTY MOCLDY 35 25 66 NW10G18 30.07R WCI 27 TETERBORO CLOUDY 35 25 66 NW9 30.05S WCI 28 CALDWELL CLOUDY 33 23 66 NW6 30.07R WCI 28 MORRISTOWN N/A 34 25 69 W3 30.08R SOMERVILLE CLEAR 31 23 72 CALM 30.07S SUSSEX CLEAR 31 23 72 NW6 30.06S WCI 25 ANDOVER N/A 24 22 91 CALM 30.07R TRENTON CLEAR 31 25 78 NW5 30.09R WCI 26 MILLVILLE CLEAR 28 25 88 W5 30.11S WCI 23 ATLANTIC CITY CLEAR 31 26 82 NW9 30.10R WCI 23 WRIGHTSTOWN CLEAR 31 27 82 NW7 30.07R WCI 25 TOMS RIVER CLEAR 30 27 86 NW3 30.08S BELMAR PTCLDY 32 19 59 NW10 30.06S WCI 24 $$ PAZ047>061-062-071-280400- EASTERN PENNSYLVANIA CITY SKY/WX TMP DP RH WIND PRES REMARKS PHILADELPHIA PTCLDY 32 25 75 N5 30.12S WCI 27 ALLENTOWN CLEAR 24 19 81 CALM 30.10R SCRANTON MOCLDY 22 19 89 S9 30.06S WCI 12 $$ CTZ002-004>006-009-010-012-RIZ004-006-007-MAZ004-011-015-280400- SOUTHERN NEW ENGLAND IN CT CITY SKY/WX TMP DP RH WIND PRES REMARKS BRADLEY INTL CLOUDY 33 26 75 N6 30.02S WCI 28 HARTFORD CLOUDY 32 28 85 VRB5 30.03S WCI 27 DANBURY CLOUDY 31 25 78 W5 30.04S WCI 26 WTRBRY/OXFORD CLOUDY 30 23 74 NW6 30.03R WCI 24 BRIDGEPORT CLOUDY 35 28 75 NW12 30.04S WCI 27 MERIDEN CLOUDY 33 27 78 NW7 30.03S WCI 27 NEW HAVEN CLOUDY 37 29 72 NW8 30.02F WCI 31 CHESTER CLOUDY 32 30 93 NW9 30.00F WCI 24 GROTON FLURRIES 33 31 92 N8 30.00S WCI 26 WILLIMANTIC CLOUDY 32 29 88 N3 30.01F IN RI CITY SKY/WX TMP DP RH WIND PRES REMARKS PROVIDENCE LGT SNOW 32 30 92 NW7 30.00F FOG WCI 26 BLOCK ISLAND CLOUDY 36 28 75 N8G16 29.98S WCI 29 WESTERLY CLOUDY 33 30 88 N9 30.00S WCI 25 IN MA CITY SKY/WX TMP DP RH WIND PRES REMARKS BOSTON LGT SNOW 31 28 89 NW10 30.01S FOG WCI 22 WORCESTER FLURRIES 27 25 92 N5 29.96F WCI 22 WESTFIELD LGT SNOW 31 28 89 N5 30.02S FOG WCI 26 PROVINCETOWN CLOUDY 39 30 70 N8 29.97F WCI 34 NANTUCKET LGT RAIN 40 36 86 CALM 29.96R $$ ANZ330-335-338-340-345-350-353-355-280400- COASTAL MARINE OBSERVATIONS STATION/POSITION TIME SKY/WX TEMP WIND PRES VSBY WAVE AIR SEA DIR/SP/G HT/PER (UTC) (F) (DEG/KT/KT) (MB) (MI) (FT/S) NY HARB ENTRANCE 0300 40 54 310/ 19/ 23 1017.1 3/11 4S FIRE IS 0300 52 N/A 3/ 9 20S FIRE ISLAND 0300 40 54 330/ 16/ 19 1016.0 4/10 23SW MTP 0300 N/A 4/11 HUDSON CANYON 0300 43 58 330/ 19/ 25 1015.1 6/ 6 EXECUTION ROCKS 0300 38 47 320/ 16/ 21 N/A WESTERN LI SOUND 0300 36 340/ 12/ 17 N/A 0 CENTRAL LI SOUND 0200 36 50 330/ 14/ 17 N/A 1/ 2 EASTERN LI SOUND 0200 36 52 340/ 12/ 17 N/A ROBBINS REEF 0300 36 310/ 16/ 21 1016.7 $$ >>>>>>>>>>>>>>>>>>>>>>>>>>>> KEY <<<<<<<<<<<<<<<<<<<<<<<<<<< > < > SKY/WX - SKY CONDITION/PRESENT WEATHER < > TMP - TEMPERATURE IN FAHRENHEIT < > DP - DEWPOINT IN FAHRENHEIT < > RH - RELATIVE HUMIDITY IN PERCENT < > WIND - DIRECTION AND SPEED IN MPH < > PRES - MEAN SEA LEVEL PRESSURE IN INCHES OF HG < > WCI - WIND CHILL INDEX < > VSB - VISIBILITY IN MILES < > HX - HEAT INDEX < > TC - TEMPERATURE IN CELSIUS < > VRB - VARIABLE WIND DIRECTION < > < >>>>>>>>>>>>>>>>>>>>>>>>>>>> KEY <<<<<<<<<<<<<<<<<<<<<<<<<<<

USA.gov is the U.S. government's official web portal to all federal, state and local government web resources and services.